Regional Weather Roundup
Issued by NWS

Home | Current Version | Previous Version | Graphics & Text | Print | Product List | Glossary On
Versions: 1 2 3 4 5 6 7 8 9 10 11 12 13 14 15 16 17 18 19 20 21 22 23 24 25 26 27 28 29 30 31 32 33 34 35 36 37 38 39 40 41 42 43 44 45 46 47 48 49 50
000
ASUS45 KTFX 202019
RWRMT
MONTANA HOURLY WEATHER ROUNDUP
NATIONAL WEATHER SERVICE GREAT FALLS MT
219 PM MDT MON OCT 20 2014

NOTE: "FAIR" INDICATES FEW OR NO CLOUDS BELOW 12000 FEET WITH NO
SIGNIFICANT WEATHER AND/OR OBSTRUCTIONS TO VISIBILITY.

* THESE STATIONS ARE NOT UNDER NWS QUALITY CONTROL. THEY DO NOT
   REPORT WEATHER SUCH AS PRECIPITATION OR FOG.

MTZ001>007-043-202100-
WEST OF THE DIVIDE
CITY           SKY/WX    TMP DP  RH WIND       PRES   REMARKS
KALISPELL      SUNNY     63  41  45 CALM      29.79F
MISSOULA       SUNNY     63  37  38 VRB3      29.81F
BUTTE          SUNNY     70  28  21 S17G23    29.93F
MULLAN PASS    SUNNY     61  30  31 VRB7      29.88F
* ESSEX        N/A       62  40  45 VRB3       N/A
* LINCOLN      N/A       65  36  34 SW2        N/A
* POLSON       N/A       63  41  45 NE3        N/A
* RONAN APT    SUNNY     64  46  52 N/A        N/A
* SEELEY LAKE  N/A       65  35  33 S2         N/A
* THOMP F APT  SUNNY     64  25  23 SE7G15     N/A
$$

MTZ008-052>055-202100-
SOUTHWEST MONTANA
CITY           SKY/WX    TMP DP  RH WIND       PRES   REMARKS
BOZEMAN        SUNNY     72  36  27 NE3       29.91F
DILLON         SUNNY     70  28  21 VRB6      29.92F
W YELLOWSTONE  SUNNY     64  28  26 SW14      30.07F
* THREE FORKS  SUNNY     66  41  40 N/A        N/A
* BOULDER HILL N/A       65  30  27 SW14       N/A
* MONIDA PASS  N/A       61  28  29 SE16G23    N/A
* RAYNOLDS PAS N/A       63  43  48 SE16G22    N/A
* WHITEHALL    N/A       69  31  24 NW4        N/A
* WISE RIVER   N/A       60  32  35 W3         N/A
$$

MTZ009>010-012-014-046-048-049-054-202100-
EAST SLOPES AND CENTRAL MONTANA
CITY           SKY/WX    TMP DP  RH WIND       PRES   REMARKS
CUT BANK       SUNNY     79  27  15 SW22G28   29.75F
GREAT FALLS    SUNNY     77  32  19 S13       29.80F
HELENA         SUNNY     66  34  31 CALM      29.85F
MALMSTROM AFB  SUNNY     77  30  18 S20G28    29.80F
* CONRAD       SUNNY     77  30  18 SE17G25    N/A
* DEARBORN     N/A       74  30  20 S13        N/A
* EAST GLACIER N/A       68  23  18 W29G38     N/A
* MONARCH      N/A       69  27  21 SW14G20    N/A
* PENDROY      N/A       74  33  22 SW13G23    N/A
* ROGERS PASS  N/A       68  28  22 E10G22     N/A
* SAINT MARY   N/A       69  27  21 SW10G24    N/A
* SWEET GRASS  N/A       72  30  21 SW18       N/A
* WHITE SULPH  N/A       73  30  20 S8G17      N/A
$$

MTZ011-013-016-021-035-040-045-047-050-051-202100-
NORTH CENTRAL MONTANA
CITY           SKY/WX    TMP DP  RH WIND       PRES   REMARKS
HAVRE          SUNNY     75  34  22 SW12      29.75F
LEWISTOWN      SUNNY     79  30  17 W13G20    29.87F
* CHINOOK      SUNNY     68  43  40 E5        29.76F
* FORT BENTON  SUNNY     81  32  17 S13       29.76F
* CHESTER      N/A       70  34  27 S4G10      N/A
* DENTON       N/A       80  39  23 S13        N/A
* GEYSER       N/A       75  34  22 SW17G22    N/A
* JUDITH GAP   N/A       72  32  23 SW14       N/A
* LOMA         N/A       74  39  28 E4         N/A
$$

MTZ017>020-022>027-061-062-202100-
NORTHEAST MONTANA
CITY           SKY/WX    TMP DP  RH WIND       PRES   REMARKS
GLASGOW        SUNNY     68  41  38 SE14      29.81F
GLENDIVE       SUNNY     72  43  35 S12       29.88F
JORDAN         SUNNY     79  30  17 SW13      29.81F
SIDNEY         SUNNY     75  45  34 S10       29.86F
WOLF POINT     SUNNY     75  45  34 CALM      29.82F
* BEAVER HILL  N/A       73  42  33 S14G24     N/A
* CIRCLE       N/A       75  45  34 SW5G12     N/A
* LINDSAY DVD  N/A       71  42  35 S9G14      N/A
* NAVAJO       N/A       71  41  34 S13        N/A
$$

MTZ028>042-056>058-202100-
SOUTHCENTRAL AND SOUTHEAST MONTANA
CITY           SKY/WX    TMP DP  RH WIND       PRES   REMARKS
BAKER          SUNNY     75  43  32 S14       29.91F
BILLINGS       SUNNY     75  30  19 SE5       29.88F
LIVINGSTON     SUNNY     77  28  16 SW22      29.90F
MILES CITY     SUNNY     73  37  27 VRB7      29.86F
* LAUREL APT   SUNNY     79  28  15 S9         N/A
* ROUNDUP APT  SUNNY     75  30  19 S15        N/A
* ALZADA       N/A       72  44  37 E8         N/A
* HYSHAM       N/A       73  34  24 W6         N/A
* LAME DEER    N/A       73  33  23 S6         N/A
* REED POINT   N/A       73  32  22 SE2        N/A
* ROSCOE HILL  N/A       72  25  17 E9G14      N/A
$$

REGIONAL REPORTS...DAKOTAS
CITY           SKY/WX    TMP DP  RH WIND       PRES   REMARKS
WILLISTON      SUNNY     75  41  30 S13       29.86F
DICKINSON      SUNNY     73  43  34 S21       29.91F
BEACH          N/A       73  39  29 S16G25    29.90F
CROSBY         SUNNY     73  39  29 S15G24    29.87F
TIOGA          SUNNY     72  39  30 S16       29.92F
BISMARCK       SUNNY     73  36  26 S18       29.99F
GRAND FORKS    SUNNY     57  43  60 NE6       30.04F
FARGO          SUNNY     63  43  48 VRB6      30.03F
BUFFALO SD     SUNNY     75  39  27 SE17G23   29.87F
RAPID CITY     SUNNY     75  45  34 S17G24    29.95F
$$

REGIONAL REPORTS...WYOMING/IDAHO/WASHINGTON
CITY           SKY/WX    TMP DP  RH WIND       PRES   REMARKS
GILLETTE       SUNNY     77  28  16 N/A       29.94F
SHERIDAN       SUNNY     75  30  19 VRB5      29.91F
CODY           SUNNY     73  27  18 SE12      29.96F
YELLOWSTONE LA SUNNY     55  34  45 VRB3      30.17F
SALMON         SUNNY     64  30  28 N5        29.85F
MULLAN PASS    SUNNY     61  30  31 VRB7      29.88S
SAND POINT     PTCLDY    59  46  62 SE3       29.78F
SPOKANE        PTSUNNY   66  43  43 SW10      29.75F
$$

REGIONAL REPORTS...ALBERTA
CITY           SKY/WX    TMP DP  RH WIND       PRES   REMARKS
CALGARY        SUNNY     73  34  24 S10G17    29.61F
LETHBRIDGE     SUNNY     77  25  14 W25G36    29.67F
MEDICINE HAT   N/A       79  36  21 SW17      29.67F
EDMONTON       PTSUNNY   72  36  27 SW9       29.54F
WATERTON GATE  N/A       72  27  19 SW20G29    N/A
CARDSTON       N/A       73  28  19 SW12G20    N/A
MILK RIVER     N/A       77  30  18 SW15G22    N/A
$$

REGIONAL REPORTS...SASKATCHEWAN
CITY           SKY/WX    TMP DP  RH WIND       PRES   REMARKS
SWIFT CURRENT  SUNNY     75  30  19 SW16G25   29.72F
MOOSE JAW      SUNNY     73  45  37 SE6       29.77F
REGINA         SUNNY     72  45  38 S14       29.78F
VAL MARIE      N/A       68  41  38 S10        N/A
ASSINIBOIA     N/A       75  39  27 S8         N/A
CORONACH       N/A       72  41  33 SE13       N/A

$$



USA.gov is the U.S. government's official web portal to all federal, state and local government web resources and services.